Location: Killam
(52.7910°N, 111.8608°W)
Time: 04:27:37
(UTC+00:00)

Gurwin Techsat 1B - Pass Details

Date: 18 March 2026
Orbit: 809 x 812 km, 99.0° (Epoch: 15 April)

Event Time Altitude Azimuth Distance (km) Brightness Sun altitude
Rises 12:57:25 0° 15° (NNE) 3,344 12.1 -6.4°
Reaches altitude 10° 12:59:46 10° 16° (NNE) 2,408 11.4 -6.0°
Maximum altitude 13:05:07 87° 287° (WNW) 818 8.7 -5.2°
Drops below altitude 10° 13:10:25 10° 199° (SSW) 2,390 10.8 -4.4°
Sets 13:12:44 0° 200° (SSW) 3,317 11.6 -4.1°
